Year,Month,Day,Hour,Minute,Value (Times are PST for temperature in C)
2020,05,29,00,00,15.70
2020,05,29,00,01,15.70
2020,05,29,00,02,15.60
2020,05,29,00,03,15.60
2020,05,29,00,04,15.60
2020,05,29,00,05,15.60
2020,05,29,00,06,15.60
2020,05,29,00,07,15.60
2020,05,29,00,08,15.60
2020,05,29,00,09,15.60
2020,05,29,00,10,15.50
2020,05,29,00,11,15.50
2020,05,29,00,12,15.50
2020,05,29,00,13,15.40
2020,05,29,00,14,15.40
2020,05,29,00,15,15.40
2020,05,29,00,16,15.40
2020,05,29,00,17,15.40
2020,05,29,00,18,15.40
2020,05,29,00,19,15.40
2020,05,29,00,20,15.40
2020,05,29,00,21,15.30
2020,05,29,00,22,15.30
2020,05,29,00,23,15.30
2020,05,29,00,24,15.30
2020,05,29,00,25,15.20
2020,05,29,00,26,15.20
2020,05,29,00,27,15.20
2020,05,29,00,28,15.20
2020,05,29,00,29,15.20
2020,05,29,00,30,15.20
2020,05,29,00,31,15.20
2020,05,29,00,32,15.10
2020,05,29,00,33,15.10
2020,05,29,00,34,15.10
2020,05,29,00,35,15.10
2020,05,29,00,36,15.00
2020,05,29,00,37,15.00
2020,05,29,00,38,15.00
2020,05,29,00,39,14.90
2020,05,29,00,40,14.90
2020,05,29,00,41,14.90
2020,05,29,00,42,15.00
2020,05,29,00,43,15.00
2020,05,29,00,44,15.00
2020,05,29,00,45,15.00
2020,05,29,00,46,15.00
2020,05,29,00,47,15.00
2020,05,29,00,48,15.00
2020,05,29,00,49,15.00
2020,05,29,00,50,15.00
2020,05,29,00,51,15.00
2020,05,29,00,52,15.00
2020,05,29,00,53,15.10
2020,05,29,00,54,15.10
2020,05,29,00,55,15.10
2020,05,29,00,56,15.10
2020,05,29,00,57,15.10
2020,05,29,00,58,15.10
2020,05,29,00,59,15.10
2020,05,29,01,00,15.10
2020,05,29,01,01,15.10
2020,05,29,01,02,15.10
2020,05,29,01,03,15.10
2020,05,29,01,04,15.10
2020,05,29,01,05,15.10
2020,05,29,01,06,15.10
2020,05,29,01,07,15.20
2020,05,29,01,08,15.20
2020,05,29,01,09,15.10
2020,05,29,01,10,15.10
2020,05,29,01,11,15.10
2020,05,29,01,12,15.10
2020,05,29,01,13,15.10
2020,05,29,01,14,15.20
2020,05,29,01,15,15.20
2020,05,29,01,16,15.30
2020,05,29,01,17,15.30
2020,05,29,01,18,15.30
2020,05,29,01,19,15.30
2020,05,29,01,20,15.30
2020,05,29,01,21,15.30
2020,05,29,01,22,15.30
2020,05,29,01,23,15.30
2020,05,29,01,24,15.30
2020,05,29,01,25,15.20
2020,05,29,01,26,15.20
2020,05,29,01,27,15.20
2020,05,29,01,28,15.20
2020,05,29,01,29,15.20
2020,05,29,01,30,15.20
2020,05,29,01,31,15.20
2020,05,29,01,32,15.20
2020,05,29,01,33,15.20
2020,05,29,01,34,15.20
2020,05,29,01,35,15.20
2020,05,29,01,36,15.20
2020,05,29,01,37,15.20
2020,05,29,01,38,15.20
2020,05,29,01,39,15.20
2020,05,29,01,40,15.20
2020,05,29,01,41,15.20
2020,05,29,01,42,15.20
2020,05,29,01,43,15.20
2020,05,29,01,44,15.20
2020,05,29,01,45,15.20
2020,05,29,01,46,15.20
2020,05,29,01,47,15.30
2020,05,29,01,48,15.30
2020,05,29,01,49,15.30
2020,05,29,01,50,15.30
2020,05,29,01,51,15.20
2020,05,29,01,52,15.20
2020,05,29,01,53,15.20
2020,05,29,01,54,15.20
2020,05,29,01,55,15.20
2020,05,29,01,56,15.20
2020,05,29,01,57,15.20
2020,05,29,01,58,15.20
2020,05,29,01,59,15.20
2020,05,29,02,00,15.20
2020,05,29,02,01,15.10
2020,05,29,02,02,15.10
2020,05,29,02,03,15.10
2020,05,29,02,04,15.10
2020,05,29,02,05,15.10
2020,05,29,02,06,15.10
2020,05,29,02,07,15.10
2020,05,29,02,08,15.10
2020,05,29,02,09,15.10
2020,05,29,02,10,15.10
2020,05,29,02,11,15.10
2020,05,29,02,12,15.10
2020,05,29,02,13,15.10
2020,05,29,02,14,15.10
2020,05,29,02,15,15.10
2020,05,29,02,16,15.10
2020,05,29,02,17,15.10
2020,05,29,02,18,15.10
2020,05,29,02,19,15.10
2020,05,29,02,20,15.00
2020,05,29,02,21,15.00
2020,05,29,02,22,15.00
2020,05,29,02,23,15.00
2020,05,29,02,24,15.00
2020,05,29,02,25,15.00
2020,05,29,02,26,15.00
2020,05,29,02,27,15.00
2020,05,29,02,28,14.90
2020,05,29,02,29,14.90
2020,05,29,02,30,14.90
2020,05,29,02,31,14.80
2020,05,29,02,32,14.80
2020,05,29,02,33,14.80
2020,05,29,02,34,14.70
2020,05,29,02,35,14.70
2020,05,29,02,36,14.60
2020,05,29,02,37,14.60
2020,05,29,02,38,14.60
2020,05,29,02,39,14.50
2020,05,29,02,40,14.40
2020,05,29,02,41,14.30
2020,05,29,02,42,14.30
2020,05,29,02,43,14.20
2020,05,29,02,44,14.10
2020,05,29,02,45,14.10
2020,05,29,02,46,14.10
2020,05,29,02,47,14.10
2020,05,29,02,48,14.10
2020,05,29,02,49,14.10
2020,05,29,02,50,14.10
2020,05,29,02,51,14.10
2020,05,29,02,52,14.00
2020,05,29,02,53,14.00
2020,05,29,02,54,14.00
2020,05,29,02,55,14.00
2020,05,29,02,56,13.90
2020,05,29,02,57,13.90
2020,05,29,02,58,13.90
2020,05,29,02,59,13.80
2020,05,29,03,00,13.80
2020,05,29,03,01,13.80
2020,05,29,03,02,13.70
2020,05,29,03,03,13.70
2020,05,29,03,04,13.60
2020,05,29,03,05,13.60
2020,05,29,03,06,13.60
2020,05,29,03,07,13.50
2020,05,29,03,08,13.50
2020,05,29,03,09,13.40
2020,05,29,03,10,13.40
2020,05,29,03,11,13.40
2020,05,29,03,12,13.30
2020,05,29,03,13,13.30
2020,05,29,03,14,13.30
2020,05,29,03,15,13.20
2020,05,29,03,16,13.20
2020,05,29,03,17,13.20
2020,05,29,03,18,13.20
2020,05,29,03,19,13.20
2020,05,29,03,20,13.20
2020,05,29,03,21,13.20
2020,05,29,03,22,13.20
2020,05,29,03,23,13.20
2020,05,29,03,24,13.30
2020,05,29,03,25,13.40
2020,05,29,03,26,13.50
2020,05,29,03,27,13.60
2020,05,29,03,28,13.70
2020,05,29,03,29,13.80
2020,05,29,03,30,13.80
2020,05,29,03,31,13.80
2020,05,29,03,32,13.90
2020,05,29,03,33,13.90
2020,05,29,03,34,14.00
2020,05,29,03,35,14.10
2020,05,29,03,36,14.20
2020,05,29,03,37,14.40
2020,05,29,03,38,14.50
2020,05,29,03,39,14.60
2020,05,29,03,40,14.60
2020,05,29,03,41,14.70
2020,05,29,03,42,14.70
2020,05,29,03,43,14.80
2020,05,29,03,44,14.80
2020,05,29,03,45,14.80
2020,05,29,03,46,14.80
2020,05,29,03,47,14.80
2020,05,29,03,48,14.80
2020,05,29,03,49,14.80
2020,05,29,03,50,14.90
2020,05,29,03,51,14.80
2020,05,29,03,52,14.80
2020,05,29,03,53,14.80
2020,05,29,03,54,14.80
2020,05,29,03,55,14.80
2020,05,29,03,56,14.80
2020,05,29,03,57,14.80
2020,05,29,03,58,14.80
2020,05,29,03,59,14.80
2020,05,29,04,00,14.80
2020,05,29,04,01,14.80
2020,05,29,04,02,14.70
2020,05,29,04,03,14.70
2020,05,29,04,04,14.70
2020,05,29,04,05,14.70
2020,05,29,04,06,14.70
2020,05,29,04,07,14.70
2020,05,29,04,08,14.70
2020,05,29,04,09,14.70
2020,05,29,04,10,14.70
2020,05,29,04,11,14.70
2020,05,29,04,12,14.70
2020,05,29,04,13,14.60
2020,05,29,04,14,14.60
2020,05,29,04,15,14.60
2020,05,29,04,16,14.60
2020,05,29,04,17,14.50
2020,05,29,04,18,14.50
2020,05,29,04,19,14.40
2020,05,29,04,20,14.40
2020,05,29,04,21,14.30
2020,05,29,04,22,14.30
2020,05,29,04,23,14.30
2020,05,29,04,24,14.20
2020,05,29,04,25,14.20
2020,05,29,04,26,14.20
2020,05,29,04,27,14.10
2020,05,29,04,28,14.10
2020,05,29,04,29,14.00
2020,05,29,04,30,13.90
2020,05,29,04,31,13.80
2020,05,29,04,32,13.80
2020,05,29,04,33,13.70
2020,05,29,04,34,13.60
2020,05,29,04,35,13.50
2020,05,29,04,36,13.40
2020,05,29,04,37,13.40
2020,05,29,04,38,13.30
2020,05,29,04,39,13.30
2020,05,29,04,40,13.30
2020,05,29,04,41,13.30
2020,05,29,04,42,13.20
2020,05,29,04,43,13.20
2020,05,29,04,44,13.10
2020,05,29,04,45,13.10
2020,05,29,04,46,13.00
2020,05,29,04,47,12.90
2020,05,29,04,48,12.90
2020,05,29,04,49,12.80
2020,05,29,04,50,12.80
2020,05,29,04,51,12.80
2020,05,29,04,52,12.80
2020,05,29,04,53,12.70
2020,05,29,04,54,12.70
2020,05,29,04,55,12.70
2020,05,29,04,56,12.70
2020,05,29,04,57,12.70
2020,05,29,04,58,12.70
2020,05,29,04,59,12.70
2020,05,29,05,00,12.60
2020,05,29,05,01,12.60
2020,05,29,05,02,12.60
2020,05,29,05,03,12.50
2020,05,29,05,04,12.50
2020,05,29,05,05,12.40
2020,05,29,05,06,12.40
2020,05,29,05,07,12.40
2020,05,29,05,08,12.30
2020,05,29,05,09,12.30
2020,05,29,05,10,12.40
2020,05,29,05,11,12.40
2020,05,29,05,12,12.40
2020,05,29,05,13,12.40
2020,05,29,05,14,12.40
2020,05,29,05,15,12.40
2020,05,29,05,16,12.40
2020,05,29,05,17,12.40
2020,05,29,05,18,12.40
2020,05,29,05,19,12.40
2020,05,29,05,20,12.40
2020,05,29,05,21,12.40
2020,05,29,05,22,12.40
2020,05,29,05,23,12.40
2020,05,29,05,24,12.40
2020,05,29,05,25,12.30
2020,05,29,05,26,12.30
2020,05,29,05,27,12.30
2020,05,29,05,28,12.30
2020,05,29,05,29,12.40
2020,05,29,05,30,12.40
2020,05,29,05,31,12.40
2020,05,29,05,32,12.40
2020,05,29,05,33,12.40
2020,05,29,05,34,12.40
2020,05,29,05,35,12.40
2020,05,29,05,36,12.40
2020,05,29,05,37,12.40
2020,05,29,05,38,12.40
2020,05,29,05,39,12.50
2020,05,29,05,40,12.50
2020,05,29,05,41,12.40
2020,05,29,05,42,12.40
2020,05,29,05,43,12.40
2020,05,29,05,44,12.40
2020,05,29,05,45,12.40
2020,05,29,05,46,12.40
2020,05,29,05,47,12.40
2020,05,29,05,48,12.30
2020,05,29,05,49,12.30
2020,05,29,05,50,12.40
2020,05,29,05,51,12.50
2020,05,29,05,52,12.60
2020,05,29,05,53,12.60
2020,05,29,05,54,12.70
2020,05,29,05,55,12.70
2020,05,29,05,56,12.70
2020,05,29,05,57,12.70
2020,05,29,05,58,12.70
2020,05,29,05,59,12.70
2020,05,29,06,00,12.70
2020,05,29,06,01,12.70
2020,05,29,06,02,12.70
2020,05,29,06,03,12.60
2020,05,29,06,04,12.60
2020,05,29,06,05,12.60
2020,05,29,06,06,12.60
2020,05,29,06,07,12.60
2020,05,29,06,08,12.60
2020,05,29,06,09,12.60
2020,05,29,06,10,12.60
2020,05,29,06,11,12.70
2020,05,29,06,12,12.70
2020,05,29,06,13,12.70
2020,05,29,06,14,12.70
2020,05,29,06,15,12.70
2020,05,29,06,16,12.80
2020,05,29,06,17,12.80
2020,05,29,06,18,12.80
2020,05,29,06,19,12.80
2020,05,29,06,20,12.90
2020,05,29,06,21,12.90
2020,05,29,06,22,13.00
2020,05,29,06,23,13.00
2020,05,29,06,24,13.10
2020,05,29,06,25,13.10
2020,05,29,06,26,13.20
2020,05,29,06,27,13.30
2020,05,29,06,28,13.30
2020,05,29,06,29,13.40
2020,05,29,06,30,13.40
2020,05,29,06,31,13.50
2020,05,29,06,32,13.50
2020,05,29,06,33,13.60
2020,05,29,06,34,13.70
2020,05,29,06,35,13.70
2020,05,29,06,36,13.80
2020,05,29,06,37,13.80
2020,05,29,06,38,13.90
2020,05,29,06,39,13.90
2020,05,29,06,40,13.90
2020,05,29,06,41,13.90
2020,05,29,06,42,14.00
2020,05,29,06,43,14.00
2020,05,29,06,44,14.10
2020,05,29,06,45,14.10
2020,05,29,06,46,14.10
2020,05,29,06,47,14.20
2020,05,29,06,48,14.20
2020,05,29,06,49,14.20
2020,05,29,06,50,14.30
2020,05,29,06,51,14.30
2020,05,29,06,52,14.30
2020,05,29,06,53,14.30
2020,05,29,06,54,14.40
2020,05,29,06,55,14.40
2020,05,29,06,56,14.40
2020,05,29,06,57,14.40
2020,05,29,06,58,14.50
2020,05,29,06,59,14.50
2020,05,29,07,00,14.60
2020,05,29,07,01,14.60
2020,05,29,07,02,14.60
2020,05,29,07,03,14.60
2020,05,29,07,04,14.60
2020,05,29,07,05,14.60
2020,05,29,07,06,14.60
2020,05,29,07,07,14.60
2020,05,29,07,08,14.60
2020,05,29,07,09,14.60
2020,05,29,07,10,14.60
2020,05,29,07,11,14.60
2020,05,29,07,12,14.60
2020,05,29,07,13,14.60
2020,05,29,07,14,14.60
2020,05,29,07,15,14.60
2020,05,29,07,16,14.60
2020,05,29,07,17,14.70
2020,05,29,07,18,14.70
2020,05,29,07,19,14.70
2020,05,29,07,20,14.70
2020,05,29,07,21,14.70
2020,05,29,07,22,14.70
2020,05,29,07,23,14.70
2020,05,29,07,24,14.80
2020,05,29,07,25,14.80
2020,05,29,07,26,14.80
2020,05,29,07,27,14.90
2020,05,29,07,28,14.90
2020,05,29,07,29,15.00
2020,05,29,07,30,15.10
2020,05,29,07,31,15.10
2020,05,29,07,32,15.20
2020,05,29,07,33,15.20
2020,05,29,07,34,15.30
2020,05,29,07,35,15.30
2020,05,29,07,36,15.30
2020,05,29,07,37,15.30
2020,05,29,07,38,15.30
2020,05,29,07,39,15.30
2020,05,29,07,40,15.40
2020,05,29,07,41,15.40
2020,05,29,07,42,15.40
2020,05,29,07,43,15.40
2020,05,29,07,44,15.40
2020,05,29,07,45,15.40
2020,05,29,07,46,15.40
2020,05,29,07,47,15.40
2020,05,29,07,48,15.40
2020,05,29,07,49,15.40
2020,05,29,07,50,15.40
2020,05,29,07,51,15.40
2020,05,29,07,52,15.40
2020,05,29,07,53,15.40
2020,05,29,07,54,15.40
2020,05,29,07,55,15.30
2020,05,29,07,56,15.30
2020,05,29,07,57,15.30
2020,05,29,07,58,15.30
2020,05,29,07,59,15.20
2020,05,29,08,00,15.20
2020,05,29,08,01,15.20
2020,05,29,08,02,15.20
2020,05,29,08,03,15.20
2020,05,29,08,04,15.20
2020,05,29,08,05,15.10
2020,05,29,08,06,15.10
2020,05,29,08,07,15.10
2020,05,29,08,08,15.10
2020,05,29,08,09,15.10
2020,05,29,08,10,15.10
2020,05,29,08,11,15.10
2020,05,29,08,12,15.20
2020,05,29,08,13,15.20
2020,05,29,08,14,15.20
2020,05,29,08,15,15.20
2020,05,29,08,16,15.30
2020,05,29,08,17,15.30
2020,05,29,08,18,15.30
2020,05,29,08,19,15.30
2020,05,29,08,20,15.30
2020,05,29,08,21,15.30
2020,05,29,08,22,15.30
2020,05,29,08,23,15.30
2020,05,29,08,24,15.30
2020,05,29,08,25,15.30
2020,05,29,08,26,15.30
2020,05,29,08,27,15.30
2020,05,29,08,28,15.30
2020,05,29,08,29,15.30
2020,05,29,08,30,15.40
2020,05,29,08,31,15.40
2020,05,29,08,32,15.40
2020,05,29,08,33,15.50
2020,05,29,08,34,15.50
2020,05,29,08,35,15.60
2020,05,29,08,36,15.70
2020,05,29,08,37,15.70
2020,05,29,08,38,15.80
2020,05,29,08,39,15.90
2020,05,29,08,40,15.90
2020,05,29,08,41,16.00
2020,05,29,08,42,16.10
2020,05,29,08,43,16.20
2020,05,29,08,44,16.40
2020,05,29,08,45,16.50
2020,05,29,08,46,16.70
2020,05,29,08,47,16.80
2020,05,29,08,48,16.80
2020,05,29,08,49,16.80
2020,05,29,08,50,16.80
2020,05,29,08,51,16.80
2020,05,29,08,52,16.80
2020,05,29,08,53,16.80
2020,05,29,08,54,16.80
2020,05,29,08,55,16.80
2020,05,29,08,56,16.70
2020,05,29,08,57,16.70
2020,05,29,08,58,16.70
2020,05,29,08,59,16.70
2020,05,29,09,00,16.80
2020,05,29,09,01,16.80
2020,05,29,09,02,16.90
2020,05,29,09,03,16.90
2020,05,29,09,04,17.00
2020,05,29,09,05,17.10
2020,05,29,09,06,17.20
2020,05,29,09,07,17.30
2020,05,29,09,08,17.30
2020,05,29,09,09,17.40
2020,05,29,09,10,17.50
2020,05,29,09,11,17.50
2020,05,29,09,12,17.60
2020,05,29,09,13,17.70
2020,05,29,09,14,17.70
2020,05,29,09,15,17.80
2020,05,29,09,16,17.90
2020,05,29,09,17,18.00
2020,05,29,09,18,18.10
2020,05,29,09,19,18.30
2020,05,29,09,20,18.40
2020,05,29,09,21,18.60
2020,05,29,09,22,18.70
2020,05,29,09,23,18.80
2020,05,29,09,24,18.90
2020,05,29,09,25,18.90
2020,05,29,09,26,19.00
2020,05,29,09,27,19.00
2020,05,29,09,28,19.10
2020,05,29,09,29,19.10
2020,05,29,09,30,19.20
2020,05,29,09,31,19.20
2020,05,29,09,32,19.20
2020,05,29,09,33,19.20
2020,05,29,09,34,19.20
2020,05,29,09,35,19.10
2020,05,29,09,36,19.10
2020,05,29,09,37,18.90
2020,05,29,09,38,18.80
2020,05,29,09,39,18.60
2020,05,29,09,40,18.40
2020,05,29,09,41,18.20
2020,05,29,09,42,18.00
2020,05,29,09,43,17.90
2020,05,29,09,44,17.90
2020,05,29,09,45,17.80
2020,05,29,09,46,17.80
2020,05,29,09,47,17.70
2020,05,29,09,48,17.70
2020,05,29,09,49,17.70
2020,05,29,09,50,17.70
2020,05,29,09,51,17.80
2020,05,29,09,52,17.80
2020,05,29,09,53,17.80
2020,05,29,09,54,17.90
2020,05,29,09,55,17.90
2020,05,29,09,56,17.90
2020,05,29,09,57,17.90
2020,05,29,09,58,17.80
2020,05,29,09,59,17.80
2020,05,29,10,00,17.70
2020,05,29,10,01,17.70
2020,05,29,10,02,17.70
2020,05,29,10,03,17.80
2020,05,29,10,04,17.80
2020,05,29,10,05,17.90
2020,05,29,10,06,18.00
2020,05,29,10,07,18.20
2020,05,29,10,08,18.30
2020,05,29,10,09,18.40
2020,05,29,10,10,18.50
2020,05,29,10,11,18.60
2020,05,29,10,12,18.60
2020,05,29,10,13,18.60
2020,05,29,10,14,18.50
2020,05,29,10,15,18.50
2020,05,29,10,16,18.50
2020,05,29,10,17,18.50
2020,05,29,10,18,18.60
2020,05,29,10,19,18.70
2020,05,29,10,20,18.70
2020,05,29,10,21,18.70
2020,05,29,10,22,18.70
2020,05,29,10,23,18.80
2020,05,29,10,24,18.80
2020,05,29,10,25,18.80
2020,05,29,10,26,18.80
2020,05,29,10,27,18.80
2020,05,29,10,28,18.80
2020,05,29,10,29,18.80
2020,05,29,10,30,18.80
2020,05,29,10,31,18.90
2020,05,29,10,32,19.00
2020,05,29,10,33,19.10
2020,05,29,10,34,19.20
2020,05,29,10,35,19.40
2020,05,29,10,36,19.50
2020,05,29,10,37,19.60
2020,05,29,10,38,19.80
2020,05,29,10,39,20.00
2020,05,29,10,40,20.10
2020,05,29,10,41,20.30
2020,05,29,10,42,20.50
2020,05,29,10,43,20.60
2020,05,29,10,44,20.80
2020,05,29,10,45,20.80
2020,05,29,10,46,20.80
2020,05,29,10,47,20.90
2020,05,29,10,48,20.90
2020,05,29,10,49,21.00
2020,05,29,10,50,21.00
2020,05,29,10,51,20.90
2020,05,29,10,52,21.00
2020,05,29,10,53,21.00
2020,05,29,10,54,21.10
2020,05,29,10,55,21.00
2020,05,29,10,56,21.00
2020,05,29,10,57,20.80
2020,05,29,10,58,20.60
2020,05,29,10,59,20.40
2020,05,29,11,00,20.10
2020,05,29,11,01,19.90
2020,05,29,11,02,19.80
2020,05,29,11,03,19.70
2020,05,29,11,04,19.70
2020,05,29,11,05,19.70
2020,05,29,11,06,19.70
2020,05,29,11,07,19.60
2020,05,29,11,08,19.60
2020,05,29,11,09,19.60
2020,05,29,11,10,19.60
2020,05,29,11,11,19.60
2020,05,29,11,12,19.70
2020,05,29,11,13,19.80
2020,05,29,11,14,19.90
2020,05,29,11,15,20.00
2020,05,29,11,16,20.10
2020,05,29,11,17,20.10
2020,05,29,11,18,20.20
2020,05,29,11,19,20.30
2020,05,29,11,20,20.20
2020,05,29,11,21,20.20
2020,05,29,11,22,20.30
2020,05,29,11,23,20.40
2020,05,29,11,24,20.50
2020,05,29,11,25,20.50
2020,05,29,11,26,20.60
2020,05,29,11,27,20.70
2020,05,29,11,28,20.70
2020,05,29,11,29,20.80
2020,05,29,11,30,20.80
2020,05,29,11,31,20.90
2020,05,29,11,32,21.00
2020,05,29,11,33,21.10
2020,05,29,11,34,21.10
2020,05,29,11,35,21.00
2020,05,29,11,36,21.00
2020,05,29,11,37,20.90
2020,05,29,11,38,20.90
2020,05,29,11,39,21.00
2020,05,29,11,40,21.10
2020,05,29,11,41,21.30
2020,05,29,11,42,21.40
2020,05,29,11,43,21.50
2020,05,29,11,44,21.40
2020,05,29,11,45,21.30
2020,05,29,11,46,21.10
2020,05,29,11,47,20.80
2020,05,29,11,48,20.70
2020,05,29,11,49,20.70
2020,05,29,11,50,20.70
2020,05,29,11,51,20.70
2020,05,29,11,52,20.70
2020,05,29,11,53,20.90
2020,05,29,11,54,21.00
2020,05,29,11,55,21.20
2020,05,29,11,56,21.20
2020,05,29,11,57,21.10
2020,05,29,11,58,21.20
2020,05,29,11,59,21.20
2020,05,29,12,00,21.10
2020,05,29,12,01,21.00
2020,05,29,12,02,20.90
2020,05,29,12,03,20.80
2020,05,29,12,04,20.80
2020,05,29,12,05,20.80
2020,05,29,12,06,20.70
2020,05,29,12,07,20.60
2020,05,29,12,08,20.60
2020,05,29,12,09,20.60
2020,05,29,12,10,20.60
2020,05,29,12,11,20.70
2020,05,29,12,12,20.80
2020,05,29,12,13,20.80
2020,05,29,12,14,20.80
2020,05,29,12,15,20.80
2020,05,29,12,16,20.90
2020,05,29,12,17,21.00
2020,05,29,12,18,21.00
2020,05,29,12,19,21.10
2020,05,29,12,20,21.00
2020,05,29,12,21,20.90
2020,05,29,12,22,21.00
2020,05,29,12,23,21.10
2020,05,29,12,24,21.00
2020,05,29,12,25,21.00
2020,05,29,12,26,21.10
2020,05,29,12,27,21.10
2020,05,29,12,28,21.20
2020,05,29,12,29,21.20
2020,05,29,12,30,21.30
2020,05,29,12,31,21.30
2020,05,29,12,32,21.40
2020,05,29,12,33,21.40
2020,05,29,12,34,21.40
2020,05,29,12,35,21.50
2020,05,29,12,36,21.50
2020,05,29,12,37,21.40
2020,05,29,12,38,21.30
2020,05,29,12,39,21.20
2020,05,29,12,40,21.20
2020,05,29,12,41,21.30
2020,05,29,12,42,21.40
2020,05,29,12,43,21.40
2020,05,29,12,44,21.30
2020,05,29,12,45,21.40
2020,05,29,12,46,21.40
2020,05,29,12,47,21.40
2020,05,29,12,48,21.40
2020,05,29,12,49,21.40
2020,05,29,12,50,21.40
2020,05,29,12,51,21.50
2020,05,29,12,52,21.50
2020,05,29,12,53,21.50
2020,05,29,12,54,21.70
2020,05,29,12,55,21.80
2020,05,29,12,56,21.80
2020,05,29,12,57,21.80
2020,05,29,12,58,21.80
2020,05,29,12,59,21.80
2020,05,29,13,00,21.80
2020,05,29,13,01,21.90
2020,05,29,13,02,21.90
2020,05,29,13,03,22.00
2020,05,29,13,04,22.00
2020,05,29,13,05,21.90
2020,05,29,13,06,21.90
2020,05,29,13,07,21.90
2020,05,29,13,08,21.90
2020,05,29,13,09,21.90
2020,05,29,13,10,22.00
2020,05,29,13,11,22.10
2020,05,29,13,12,22.10
2020,05,29,13,13,22.00
2020,05,29,13,14,22.00
2020,05,29,13,15,22.10
2020,05,29,13,16,22.10
2020,05,29,13,17,22.10
2020,05,29,13,18,22.10
2020,05,29,13,19,22.10
2020,05,29,13,20,22.20
2020,05,29,13,21,22.20
2020,05,29,13,22,22.10
2020,05,29,13,23,22.10
2020,05,29,13,24,22.10
2020,05,29,13,25,22.10
2020,05,29,13,26,22.10
2020,05,29,13,27,22.00
2020,05,29,13,28,21.80
2020,05,29,13,29,21.80
2020,05,29,13,30,21.90
2020,05,29,13,31,22.00
2020,05,29,13,32,22.00
2020,05,29,13,33,22.00
2020,05,29,13,34,22.10
2020,05,29,13,35,22.20
2020,05,29,13,36,22.20
2020,05,29,13,37,22.30
2020,05,29,13,38,22.30
2020,05,29,13,39,22.40
2020,05,29,13,40,22.50
2020,05,29,13,41,22.40
2020,05,29,13,42,22.30
2020,05,29,13,43,22.40
2020,05,29,13,44,22.50
2020,05,29,13,45,22.60
2020,05,29,13,46,22.50
2020,05,29,13,47,22.50
2020,05,29,13,48,22.50
2020,05,29,13,49,22.50
2020,05,29,13,50,22.50
2020,05,29,13,51,22.50
2020,05,29,13,52,22.50
2020,05,29,13,53,22.40
2020,05,29,13,54,22.40
2020,05,29,13,55,22.40
2020,05,29,13,56,22.40
2020,05,29,13,57,22.40
2020,05,29,13,58,22.50
2020,05,29,13,59,22.50
2020,05,29,14,00,22.50
2020,05,29,14,01,22.50
2020,05,29,14,02,22.50
2020,05,29,14,03,22.60
2020,05,29,14,04,22.60
2020,05,29,14,05,22.60
2020,05,29,14,06,22.50
2020,05,29,14,07,22.40
2020,05,29,14,08,22.50
2020,05,29,14,09,22.60
2020,05,29,14,10,22.80
2020,05,29,14,11,23.00
2020,05,29,14,12,23.10
2020,05,29,14,13,23.20
2020,05,29,14,14,23.20
2020,05,29,14,15,23.10
2020,05,29,14,16,23.00
2020,05,29,14,17,23.00
2020,05,29,14,18,22.90
2020,05,29,14,19,22.90
2020,05,29,14,20,22.90
2020,05,29,14,21,22.80
2020,05,29,14,22,22.80
2020,05,29,14,23,22.80
2020,05,29,14,24,22.80
2020,05,29,14,25,22.70
2020,05,29,14,26,22.70
2020,05,29,14,27,22.60
2020,05,29,14,28,22.60
2020,05,29,14,29,22.60
2020,05,29,14,30,22.70
2020,05,29,14,31,22.70
2020,05,29,14,32,22.70
2020,05,29,14,33,22.50
2020,05,29,14,34,22.40
2020,05,29,14,35,22.40
2020,05,29,14,36,22.40
2020,05,29,14,37,22.40
2020,05,29,14,38,22.50
2020,05,29,14,39,22.60
2020,05,29,14,40,22.60
2020,05,29,14,41,22.60
2020,05,29,14,42,22.70
2020,05,29,14,43,22.60
2020,05,29,14,44,22.50
2020,05,29,14,45,22.40
2020,05,29,14,46,22.30
2020,05,29,14,47,22.20
2020,05,29,14,48,22.20
2020,05,29,14,49,22.10
2020,05,29,14,50,22.00
2020,05,29,14,51,22.00
2020,05,29,14,52,22.10
2020,05,29,14,53,22.10
2020,05,29,14,54,22.10
2020,05,29,14,55,22.10
2020,05,29,14,56,22.10
2020,05,29,14,57,22.20
2020,05,29,14,58,22.20
2020,05,29,14,59,22.10
2020,05,29,15,00,22.00
2020,05,29,15,01,21.90
2020,05,29,15,02,21.80
2020,05,29,15,03,21.80
2020,05,29,15,04,21.80
2020,05,29,15,05,21.80
2020,05,29,15,06,21.70
2020,05,29,15,07,21.80
2020,05,29,15,08,21.90
2020,05,29,15,09,21.90
2020,05,29,15,10,21.90
2020,05,29,15,11,21.90
2020,05,29,15,12,21.90
2020,05,29,15,13,21.90
2020,05,29,15,14,21.90
2020,05,29,15,15,22.00
2020,05,29,15,16,22.00
2020,05,29,15,17,22.10
2020,05,29,15,18,22.20
2020,05,29,15,19,22.20
2020,05,29,15,20,22.30
2020,05,29,15,21,22.30
2020,05,29,15,22,22.30
2020,05,29,15,23,22.10
2020,05,29,15,24,22.00
2020,05,29,15,25,21.80
2020,05,29,15,26,21.80
2020,05,29,15,27,21.90
2020,05,29,15,28,22.00
2020,05,29,15,29,22.10
2020,05,29,15,30,22.20
2020,05,29,15,31,22.30
2020,05,29,15,32,22.40
2020,05,29,15,33,22.40
2020,05,29,15,34,22.30
2020,05,29,15,35,22.40
2020,05,29,15,36,22.30
2020,05,29,15,37,22.30
2020,05,29,15,38,22.30
2020,05,29,15,39,22.30
2020,05,29,15,40,22.30
2020,05,29,15,41,22.30
2020,05,29,15,42,22.30
2020,05,29,15,43,22.40
2020,05,29,15,44,22.40
2020,05,29,15,45,22.50
2020,05,29,15,46,22.60
2020,05,29,15,47,22.50
2020,05,29,15,48,22.50
2020,05,29,15,49,22.40
2020,05,29,15,50,22.40
2020,05,29,15,51,22.50
2020,05,29,15,52,22.50
2020,05,29,15,53,22.50
2020,05,29,15,54,22.60
2020,05,29,15,55,22.60
2020,05,29,15,56,22.60
2020,05,29,15,57,22.70
2020,05,29,15,58,22.80
2020,05,29,15,59,22.80
2020,05,29,16,00,22.80
2020,05,29,16,01,22.80
2020,05,29,16,02,22.90
2020,05,29,16,03,22.90
2020,05,29,16,04,22.90
2020,05,29,16,05,22.90
2020,05,29,16,06,22.90
2020,05,29,16,07,22.90
2020,05,29,16,08,22.80
2020,05,29,16,09,22.70
2020,05,29,16,10,22.60
2020,05,29,16,11,22.60
2020,05,29,16,12,22.50
2020,05,29,16,13,22.30
2020,05,29,16,14,22.30
2020,05,29,16,15,22.30
2020,05,29,16,16,22.40
2020,05,29,16,17,22.50
2020,05,29,16,18,22.60
2020,05,29,16,19,22.70
2020,05,29,16,20,22.70
2020,05,29,16,21,22.70
2020,05,29,16,22,22.60
2020,05,29,16,23,22.60
2020,05,29,16,24,22.70
2020,05,29,16,25,22.70
2020,05,29,16,26,22.70
2020,05,29,16,27,22.70
2020,05,29,16,28,22.70
2020,05,29,16,29,22.60
2020,05,29,16,30,22.60
2020,05,29,16,31,22.50
2020,05,29,16,32,22.40
2020,05,29,16,33,22.40
2020,05,29,16,34,22.40
2020,05,29,16,35,22.40
2020,05,29,16,36,22.40
2020,05,29,16,37,22.50
2020,05,29,16,38,22.60
2020,05,29,16,39,22.60
2020,05,29,16,40,22.60
2020,05,29,16,41,22.70
2020,05,29,16,42,22.80
2020,05,29,16,43,22.90
2020,05,29,16,44,22.90
2020,05,29,16,45,22.90
2020,05,29,16,46,22.80
2020,05,29,16,47,22.80
2020,05,29,16,48,22.90
2020,05,29,16,49,22.90
2020,05,29,16,50,23.00
2020,05,29,16,51,22.90
2020,05,29,16,52,22.90
2020,05,29,16,53,23.00
2020,05,29,16,54,23.10
2020,05,29,16,55,23.10
2020,05,29,16,56,23.10
2020,05,29,16,57,23.10
2020,05,29,16,58,23.00
2020,05,29,16,59,23.00
2020,05,29,17,00,22.90
2020,05,29,17,01,22.90
2020,05,29,17,02,23.00
2020,05,29,17,03,23.00
2020,05,29,17,04,23.00
2020,05,29,17,05,23.10
2020,05,29,17,06,23.10
2020,05,29,17,07,23.10
2020,05,29,17,08,23.10
2020,05,29,17,09,23.10
2020,05,29,17,10,23.10
2020,05,29,17,11,23.20
2020,05,29,17,12,23.20
2020,05,29,17,13,23.20
2020,05,29,17,14,23.10
2020,05,29,17,15,23.10
2020,05,29,17,16,23.10
2020,05,29,17,17,23.10
2020,05,29,17,18,23.00
2020,05,29,17,19,23.00